Weather History for Campo, CA

Change the Weather History Date:

Friday, December 20, 2013

  Actual Average Record
Temperature  
Mean Temperature 44 °F 47 °F  
Max Temperature 52 °F 62 °F 77 °F (2000)
Min Temperature 36 °F 32 °F 18 °F (1992)
Degree Days  
Heating Degree Days 21 18  
Month to date heating degree days 353 346  
Since 1 July heating degree days 982 916  
Cooling Degree Days 0 0  
Month to date cooling degree days 2 0  
Year to date cooling degree days 911 841  
Moisture  
Dew Point 37 °F    
Average Humidity 80    
Maximum Humidity 100    
Minimum Humidity 59    
Precipitation  
Precipitation 0.00 in 0.07 in 1.16 in (1951)
Month to date precipitation 0.55 1.35  
Year to date precipitation 8.97 14.81  
Since 1 July precipitation 4.19 4.66  
Snow  
Snow 0.00 in - - ()
Month to date snowfall 0.0  
Year to date snowfall 0.0  
Since 1 July snowfall 0.0  
Snow Depth 0.00 in    
Sea Level Pressure  
Sea Level Pressure 29.78 in    
Wind  
Wind Speed 3 mph (West)    
Max Wind Speed 16 mph    
Max Gust Speed 20 mph    
T = Trace of Precipitation, MM = Missing Value Source: NWS Daily Summary

Daily Weather History Graph

Daily Weather History Graph

Search for Another Location

Airport:

Trip Planner

Search our weather history database for the weather conditions in past years. The results will help you decide how hot, cold, wet, or windy it might be!

Date:

Astronomy

Dec. 20, 2013 Rise Set
Actual Time 6:43 AM PST 4:43 PM PST
Civil Twilight 6:16 AM PST 5:11 PM PST
Nautical Twilight 5:45 AM PST 5:41 PM PST
Astronomical Twilight 5:15 AM PST 6:11 PM PST
Moon 7:59 PM PST (12/20) 8:48 AM PST (12/20)
Length of Visible Light 10h 54m
Length of Day
10h 00m
Waning Gibbous, 90% of the Moon is Illuminated
Dec 20
Waning Gibbous
Dec 25
Last Quarter
Jan 1
New
Jan 7
First Quarter
Jan 15
Full

Hourly Weather History & Observations

Time (PST) Temp. Windchill Dew Point Humidity Pressure Visibility Wind Dir Wind Speed Gust Speed Precip Events Conditions
12:52 AM 37.0 °F - 35.1 °F 93% 29.68 in - Calm Calm - N/A   Unknown
1:52 AM 37.0 °F 34.5 °F 36.0 °F 96% 29.68 in - NE 3.5 mph - N/A   Unknown
2:52 AM 37.9 °F - 37.0 °F 97% 29.69 in - Calm Calm - N/A   Unknown
3:52 AM 37.0 °F - 36.0 °F 96% 29.69 in - Calm Calm - N/A   Unknown
4:52 AM 37.9 °F - 36.0 °F 93% 29.69 in - Calm Calm - N/A   Unknown
5:52 AM 37.9 °F - 37.0 °F 97% 29.72 in - Calm Calm - N/A   Unknown
6:52 AM 37.9 °F - 36.0 °F 93% 29.75 in - Calm Calm - N/A   Unknown
7:52 AM 39.0 °F - 37.0 °F 93% 29.78 in - Calm Calm - N/A   Unknown
8:52 AM 39.9 °F - 37.0 °F 89% 29.80 in - Calm Calm - N/A   Unknown
9:52 AM 43.0 °F - 39.0 °F 86% 29.81 in - Calm Calm - N/A   Unknown
10:52 AM 45.0 °F 40.6 °F 41.0 °F 86% 29.80 in - SSW 8.1 mph - N/A   Unknown
11:52 AM 48.0 °F - 39.0 °F 71% 29.78 in - West 4.6 mph - N/A   Unknown
12:52 PM 50.0 °F - 39.9 °F 68% 29.75 in - SW 11.5 mph - N/A   Unknown
1:52 PM 51.1 °F - 41.0 °F 68% 29.77 in - SW 8.1 mph - N/A   Unknown
2:52 PM 51.1 °F - 37.0 °F 59% 29.78 in - WNW 11.5 mph - N/A   Unknown
3:52 PM 50.0 °F - 37.0 °F 61% 29.79 in - WNW 6.9 mph - N/A   Unknown
4:52 PM 48.0 °F - 37.0 °F 66% 29.81 in - West 5.8 mph - N/A   Unknown
5:52 PM 42.1 °F - 36.0 °F 79% 29.82 in - Calm Calm - N/A   Unknown
6:52 PM 39.9 °F - 36.0 °F 86% 29.84 in - Calm Calm - N/A   Unknown
7:52 PM 35.1 °F 31.0 °F 33.1 °F 92% 29.87 in - NE 4.6 mph - N/A   Unknown
8:52 PM 39.0 °F - 36.0 °F 89% 29.87 in - Calm Calm - N/A   Unknown
9:52 PM 41.0 °F - 37.9 °F 89% 29.88 in - Calm Calm - N/A   Unknown
10:52 PM 42.1 °F - 39.0 °F 89% 29.88 in - Calm Calm - N/A   Unknown
11:52 PM 42.1 °F - 39.0 °F 89% 29.88 in - Calm Calm - N/A   Unknown